Regional Weather Roundup
Issued by NWS

Home | Current Version | Previous Version | Graphics & Text | Print | Product List | Glossary On
Versions: 1 2 3 4 5 6 7 8 9 10 11 12 13 14 15 16 17 18 19 20 21 22 23 24 25 26 27 28 29 30 31 32 33 34 35 36 37 38 39 40 41 42 43 44 45 46 47 48 49 50
000
ASUS43 KLOT 011412
RWRIL

ILLINOIS REGIONAL WEATHER ROUNDUP
NATIONAL WEATHER SERVICE CHICAGO/ROMEOVILLE IL
900 AM CDT WED JUL 01 2015

NOTE: "FAIR" INDICATES FEW OR NO CLOUDS BELOW 12,000 FEET WITH NO
SIGNIFICANT WEATHER AND/OR OBSTRUCTIONS TO VISIBILITY.

* THESE STATIONS ARE NOT UNDER NWS QUALITY CONTROL. THEY ALSO MAY NOT
  REPORT WEATHER SUCH AS PRECIPITATION OR FOG.

ILZ001-002-007-009-015-016-024-011500-
NORTHWEST ILLINOIS

CITY           SKY/WX    TMP DP  RH WIND       PRES   REMARKS
MOLINE         CLOUDY    65  61  87 NE12      29.93S FOG
STERLING*      MOSUNNY   63  57  82 E10       29.96S
SAVANNA*       CLOUDY    64  56  77 E7        29.97R
$$

ILZ003-004-008-010-011-017-018-011500-
NORTH CENTRAL ILLINOIS

CITY           SKY/WX    TMP DP  RH WIND       PRES   REMARKS
ROCKFORD       CLOUDY    63  54  72 NE8       29.99R
FREEPORT*      CLOUDY    60  56  86 E7        29.99S
ROCHELLE*      CLOUDY    61  56  84 NE8       29.98R
DE KALB*       PTSUNNY   59  54  83 E8        29.98S
PERU*          PTSUNNY   62  57  85 E8        29.97R
$$

ILZ005-006-012>014-019>023-011500-
NORTHEAST ILLINOIS

CITY           SKY/WX    TMP DP  RH WIND       PRES   REMARKS
CHICAGO-OHARE  PTSUNNY   59  51  75 VRB3      29.97S
CHICAGO-MIDWAY CLOUDY    62  53  72 NE7       29.97S
AURORA         PTSUNNY   62  53  72 NE10      29.97R
LANSING*       CLOUDY    60  51  70 NE10      29.97S
JOLIET*        CLOUDY    64  57  78 NE7       29.96S
WAUKEGAN       PTSUNNY   59  52  77 N3        29.97R
DUPAGE AIRPORT CLOUDY    60  53  77 NE6       29.96S
KANKAKEE*      MOSUNNY   62  57  82 NE6       29.96S
WHEELING       CLOUDY    60  52  74 CALM      29.99S
MORRIS*        SUNNY     62  55  76 NE3       29.94R
ROMEOVILLE*    PTSUNNY   61  54  76 E8        29.97R
NORTHERLY ISL    N/A     59  52  77 N7          N/A
$$

LMZ740>746-011500-
SOUTHERN LAKE MICHIGAN

STATION/POSITION SKY/WX   TEMP    WIND        PRES    VSBY  WAVE
                          AIR SEA DIR/SP/G                  HT/PER
                          (F)     (DEG/KT/KT) (MB)    (MI)  (FT/S)
HARRISON CRIB              56      10/  8/ 10   N/A
BURNHAM HARBOR             59     360/  7/  8   N/A
CALUMET HARBOR             57      10/  7/ 10   N/A
BURNS HARBOR               58      10/ 11/ 13 1015.2S
MICHIGAN CITY              58     350/ 11/ 13   N/A
MICHIGAN CITY 6N           58 65   20/  8/ 10   N/A           4/ 6
ST. JOSEPH                 58 63                N/A           4/ 6
$$

ILZ025>027-034>036-040-047-049-050-058-095>099-011500-
WEST-CENTRAL ILLINOIS

CITY           SKY/WX    TMP DP  RH WIND       PRES   REMARKS
QUINCY         CLOUDY    73  66  78 S3        29.91R
GALESBURG*     SUNNY     70  64  83 E5        29.92R
MACOMB*        MOSUNNY   70  66  89 CALM      29.93R
JACKSONVILLE*  CLOUDY    74  69  84 W3        29.92R
PITTSFIELD*    CLOUDY    73  67  80 W3        29.93R
$$

ILZ028>032-037-038-041>044-048-051>054-059>061-011500-
CENTRAL ILLINOIS

CITY           SKY/WX    TMP DP  RH WIND       PRES   REMARKS
PONTIAC        PTSUNNY   64  60  88 E9        29.96R
BLOOMINGTON    MOSUNNY   65  63  93 E9        29.94S
DECATUR        PTSUNNY   68  65  90 E6        29.92R FOG
PEORIA         SUNNY     69  63  81 E8        29.92R
LACON*         SUNNY     63  57  79 E8        29.93S
LINCOLN*       PTSUNNY   69  65  88 E6        29.92R FOG
SPRINGFIELD    PTSUNNY   74  69  85 W8        29.91R
TAYLORVILLE    PTSUNNY   72  68  88 W9        29.91S
$$

ILZ033-039-045-046-055>057-062-063-011500-
EAST-CENTRAL ILLINOIS

CITY           SKY/WX    TMP DP  RH WIND       PRES   REMARKS
CHAMPAIGN      PTSUNNY   66  63  90 E8        29.93R
DANVILLE*      MOSUNNY   65  60  83 NE8       29.91F
RANTOUL*       PTSUNNY   67  61  81 E8        29.93S
MATTOON        MOSUNNY   68  66  93 SE3       29.91S FOG
PARIS*         PTSUNNY   67  65  92 E3        29.93R
$$

ILZ079-100>102-011500-
SOUTHWEST ILLINOIS

CITY           SKY/WX    TMP DP  RH WIND       PRES   REMARKS
ALTON          CLOUDY    72  72 100 W5        29.93R
BELLEVILLE     CLOUDY    73  72  99 W6        29.92R
CAHOKIA*       CLOUDY    74  68  81 SW6       29.93R
SPARTA*        CLOUDY    71  69  94 SW3       29.95R
$$

ILZ064>066-069>071-074>076-080>082-084>086-088>090-092>094-011500-
SOUTH-CENTRAL ILLINOIS

CITY           SKY/WX    TMP DP  RH WIND       PRES   REMARKS
CARBONDALE     LGT RAIN  72  69  90 SW3       29.96R
CAIRO*         TSTM      73  70  91 W9G20     29.98R
EFFINGHAM*     MOSUNNY   72  67  82 CALM      29.93S
MARION         LGT RAIN  72  70  94 NW9       29.97R
MT. VERNON     CLOUDY    73  66  78 SW3       29.93S
CENTRALIA*     CLOUDY    72  69  90 CALM      29.93R FOG
SALEM*         CLOUDY    75  71  88 CALM      29.92S FOG
METROPOLIS*    CLOUDY    74  74  98 CALM      29.96R
$$

ILZ067-068-072-073-078-083-087-091-011500-
SOUTHEAST ILLINOIS

CITY           SKY/WX    TMP DP  RH WIND       PRES   REMARKS
LAWRENCEVILLE  PTSUNNY   72  69  90 E3        29.92S FOG
FLORA*         MOSUNNY   73  69  90 SW5       29.93R
FAIRFIELD*     DRIZZLE   72  70  95 CALM      29.92R
HARRISBURG*    CLOUDY    73  71  95 NW5       29.95R
ROBINSON*      MOSUNNY   71  68  90 CALM      29.93R
CARMI*         CLOUDY    74  67  79 CALM      29.92S
$$

ABBREVIATIONS USED IN REMARKS
   TC - TEMPERATURE IN CELSIUS
  WCI - WIND CHILL INDEX
   HX - HEAT INDEX
  VSB - VISIBILITY
$$



USA.gov is the U.S. government's official web portal to all federal, state and local government web resources and services.